TimeCST,TemperatureF,Dew PointF,Humidity,Sea Level PressureIn,VisibilityMPH,Wind Direction,Wind SpeedMPH,Gust SpeedMPH,PrecipitationIn,Events,Conditions,WindDirDegrees,DateUTC
12:53 AM,25.0,23.0,92,30.51,10.0,South,3.5,-,N/A,,Clear,170,2013-01-18 06:53:00
1:53 AM,25.0,23.0,92,30.52,10.0,Calm,Calm,-,N/A,,Clear,0,2013-01-18 07:53:00
2:53 AM,24.1,21.9,91,30.51,10.0,Calm,Calm,-,N/A,,Clear,0,2013-01-18 08:53:00
3:53 AM,25.0,23.0,92,30.49,10.0,Calm,Calm,-,N/A,,Clear,0,2013-01-18 09:53:00
4:53 AM,25.0,24.1,96,30.48,10.0,Calm,Calm,-,N/A,,Clear,0,2013-01-18 10:53:00
5:53 AM,25.0,23.0,92,30.48,10.0,South,3.5,-,N/A,,Clear,170,2013-01-18 11:53:00
6:53 AM,25.0,23.0,92,30.47,10.0,South,3.5,-,N/A,,Clear,170,2013-01-18 12:53:00
7:53 AM,25.0,23.0,92,30.46,10.0,Calm,Calm,-,N/A,,Clear,0,2013-01-18 13:53:00
8:53 AM,32.0,28.0,85,30.47,10.0,South,6.9,-,N/A,,Clear,180,2013-01-18 14:53:00
9:53 AM,39.0,28.9,67,30.47,10.0,South,12.7,-,N/A,,Clear,190,2013-01-18 15:53:00
10:53 AM,46.9,30.9,54,30.45,10.0,SSW,12.7,-,N/A,,Clear,200,2013-01-18 16:53:00
11:53 AM,50.0,30.0,46,30.41,10.0,SSW,17.3,-,N/A,,Clear,200,2013-01-18 17:53:00
12:53 PM,52.0,28.9,41,30.36,10.0,South,19.6,24.2,N/A,,Clear,190,2013-01-18 18:53:00
1:53 PM,53.1,27.0,37,30.33,10.0,SSW,15.0,21.9,N/A,,Clear,210,2013-01-18 19:53:00
2:53 PM,53.1,28.0,38,30.31,10.0,SSW,11.5,21.9,N/A,,Clear,210,2013-01-18 20:53:00
3:53 PM,52.0,26.1,37,30.29,10.0,SSW,17.3,24.2,N/A,,Clear,210,2013-01-18 21:53:00
4:53 PM,50.0,28.0,43,30.29,10.0,SSW,13.8,-,N/A,,Clear,200,2013-01-18 22:53:00
5:53 PM,45.0,28.9,53,30.29,10.0,South,10.4,-,N/A,,Clear,180,2013-01-18 23:53:00
6:53 PM,44.1,28.0,53,30.27,10.0,South,10.4,-,N/A,,Clear,180,2013-01-19 00:53:00
7:53 PM,41.0,28.0,60,30.27,10.0,South,8.1,-,N/A,,Clear,190,2013-01-19 01:53:00
8:53 PM,43.0,26.1,51,30.25,10.0,South,12.7,-,N/A,,Clear,190,2013-01-19 02:53:00
9:53 PM,42.1,27.0,55,30.24,10.0,South,10.4,-,N/A,,Clear,190,2013-01-19 03:53:00
10:53 PM,41.0,27.0,57,30.22,10.0,South,11.5,-,N/A,,Clear,190,2013-01-19 04:53:00
11:53 PM,42.1,26.1,53,30.21,10.0,SSW,9.2,-,N/A,,Clear,200,2013-01-19 05:53:00